This is the latest recevied weather packets stored in our database for station/object OE5RBO. If no packets are shown the sender has not sent any weather packets the latest 10 day(s).
| Time | Temp. | Humidity | Pressure | Rain* | Wind** | Luminosity | Snow |
|---|---|---|---|---|---|---|---|
| 1777720565 | 24.44° C | 34% | 1020.9 hPa | 0 mm | - | - | - |
| 1777719965 | 23.89° C | 38% | 1021 hPa | 0 mm | - | - | - |
| 1777719364 | 25° C | 33% | 1021 hPa | 0 mm | - | - | - |
| 1777718764 | 24.44° C | 34% | 1021.1 hPa | 0 mm | - | - | - |
| 1777716963 | 24.44° C | 38% | 1021.4 hPa | 0 mm | - | - | - |
| 1777716363 | 23.89° C | 36% | 1021.4 hPa | 0 mm | - | - | - |
| 1777715762 | 23.89° C | 36% | 1021.7 hPa | 0 mm | - | - | - |
| 1777715162 | 23.33° C | 40% | 1021.7 hPa | 0 mm | - | - | - |
| 1777714561 | 22.22° C | 43% | 1021.8 hPa | 0 mm | - | - | - |
| 1777713961 | 22.22° C | 42% | 1021.9 hPa | 0 mm | - | - | - |
| 1777713361 | 22.22° C | 42% | 1022 hPa | 0 mm | - | - | - |
| 1777712760 | 21.67° C | 46% | 1022.1 hPa | 0 mm | - | - | - |
| 1777712160 | 21.11° C | 44% | 1022.1 hPa | 0 mm | - | - | - |
| 1777711559 | 21.11° C | 45% | 1022.1 hPa | 0 mm | - | - | - |
| 1777710359 | 21.11° C | 44% | 1022.2 hPa | 0 mm | - | - | - |
| 1777709758 | 20.56° C | 44% | 1022.3 hPa | 0 mm | - | - | - |
| 1777709158 | 21.11° C | 46% | 1022.4 hPa | 0 mm | - | - | - |
| 1777708558 | 22.22° C | 47% | 1022.4 hPa | 0 mm | - | - | - |
| 1777707958 | 22.22° C | 49% | 1022.5 hPa | 0 mm | - | - | - |
| 1777707357 | 20.56° C | 52% | 1022.4 hPa | 0 mm | - | - | - |
| 1777706757 | 20.56° C | 56% | 1022.6 hPa | 0 mm | - | - | - |
| 1777705556 | 18.33° C | 62% | 1022.6 hPa | 0 mm | - | - | - |
| 1777704956 | 17.22° C | 64% | 1022.6 hPa | 0 mm | - | - | - |
| 1777703755 | 15.56° C | 69% | 1022.6 hPa | 0 mm | - | - | - |
| 1777703155 | 15.56° C | 67% | 1022.7 hPa | 0 mm | - | - | - |
* Rain since midnight (hover to see other rain measurements)
** Current wind speed in m/s (hover to see current wind gust speed)